Location: Newark
(59.8814°N, 10.8258°E)
Time: 00:29:42
(UTC+00:00)

Envisat - Pass Details

Date: 02 February 2020
Orbit: 764 x 766 km, 98.1° (Epoch: 24 February)

Event Time Altitude Azimuth Distance (km) Brightness Sun altitude
Rises 17:34:23 0° 188° (S) 3,226 6.4 -15.0°
Reaches altitude 10° 17:36:50 10° 196° (SSW) 2,304 5.8 -15.3°
Maximum altitude 17:41:33 38° 264° (W) 1,164 4.6 -15.9°
Drops below altitude 10° 17:46:19 10° 333° (NNW) 2,318 5.8 -16.5°
Sets 17:48:48 0° 341° (NNW) 3,249 6.4 -16.8°
